This demonstration page uses our WeatherBlox Daily Observations layout. Learn more.

Left ArrowRight Arrow

41.55636, -103.73856

Hourly Observations for April 18, 2020

Temp ( °F °C ) Dew Point ( °F °C ) Humidity (%) Winds ( mph kmh ) Pressure ( in mb ) Visibility ( mi km ) Precip ( " mm )
7:58 pm 19:58 Clear 36 2.1 22 -5.5 58 58 SW 15 24 30.07 1018 10 16 0.00 0.00
8:58 pm 20:58 Clear 35 1.7 20 -6.5 55 55 SW 16 26 30.06 1018 10 16 0.00 0.00
9:58 pm 21:58 Clear 35 1.6 20 -6.9 54 54 SW 10 17 30.04 1017 10 16 0.00 0.00
10:58 pm 22:58 Clear 37 2.6 19 -7.5 48 48 SW 8 13 30.01 1016 10 16 0.00 0.00
11:58 pm 23:58 Clear 39 3.9 19 -7.4 44 44 W 9 15 29.99 1016 10 16 0.00 0.00
12:58 am 00:58 Clear 33 0.7 20 -6.8 58 58 W 5 7 29.98 1015 10 16 0.00 0.00
1:58 am 01:58 Clear 32 0.2 19 -7 59 59 SW 7 11 29.96 1014 10 16 0.00 0.00
2:58 am 02:58 Clear 31 -0.5 17 -8.1 57 57 WSW 6 9 29.92 1013 10 16 0.00 0.00
3:58 am 03:58 Clear 29 -1.7 18 -7.7 64 64 WSW 7 11 29.92 1013 10 16 0.00 0.00
4:58 am 04:58 Clear 30 -1.3 18 -7.9 61 61 WSW 10 17 29.90 1013 10 16 0.00 0.00
5:58 am 05:58 Clear 31 -0.7 17 -8.5 56 56 WSW 6 9 29.89 1012 10 16 0.00 0.00
6:58 am 06:58 Sunny 30 -0.9 17 -8.4 57 57 SW 5 7 29.90 1013 10 16 0.00 0.00
7:58 am 07:58 Sunny 42 5.3 19 -7.5 40 40 Calm 29.90 1013 10 16 0.00 0.00
8:58 am 08:58 Sunny 49 9.7 20 -6.9 31 31 W 12 19 29.88 1012 10 16 0.00 0.00
9:58 am 09:58 Mostly Cloudy 52 10.9 18 -7.7 27 27 WNW 14 22 29.88 1012 10 16 0.00 0.00
10:58 am 10:58 Mostly Cloudy 54 12.1 19 -7 26 26 WNW 10 17 29.87 1011 10 16 0.00 0.00
11:58 am 11:58 Sunny 57 13.9 13 -10.5 17 17 NW 14 22 29.81 1010 10 16 0.00 0.00
12:58 pm 12:58 Sunny 58 14.2 17 -8.6 20 20 NW 18 30 29.82 1010 10 16 0.00 0.00
1:58 pm 13:58 Sunny 59 14.8 13 -10.7 16 16 WNW 20 31 29.80 1009 10 16 0.00 0.00
2:58 pm 14:58 Sunny 59 15.1 21 -6 23 23 NNW 13 20 29.78 1009 10 16 0.00 0.00
3:58 pm 15:58 Sunny 59 15.1 18 -8 20 20 N 8 13 29.78 1008 10 16 0.00 0.00
4:58 pm 16:58 Sunny 59 15.1 14 -10 17 17 N 8 13 29.78 1008 10 16 0.00 0.00
5:58 pm 17:58 Sunny 59 14.8 15 -9.7 18 18 WNW 8 13 29.78 1009 10 16 0.00 0.00

Powered by AerisWeather